#timestamp,LO_Frequency,Hit,StdDev 
1601388015.1,286047003.2,N
1601388035.9,286047006.4,N
1601388055.7,286047007.0,N
1601388075.6,286047003.6,N
1601388095.4,286047002.5,N
1601388115.2,286047000.4,N
1601388135.1,286047000.7,N
1601388136.0,286047000.7,N
1601388155.8,286047001.1,N
1601388175.6,286046998.1,N
1601388195.5,286047000.4,N
1601388215.3,286047002.1,N
1601388235.2,286047001.9,N
1601388255.9,286047003.8,N
1601388275.7,286047003.5,N
1601388295.6,286047005.6,N
1601388315.4,286047003.3,N
1601388335.2,286047002.5,N
1601388355.1,286046999.9,N
1601388356.0,286046999.9,N
1601388375.8,286046998.4,N
1601388395.7,286047000.5,N
1601388415.5,286046998.6,N
1601388435.3,286046998.2,N
1601388455.2,286046998.6,N
1601388475.9,286046999.0,N
1601388495.7,286047001.1,N
1601388515.6,286046996.5,N
1601388535.4,286047001.1,N
1601388555.3,286046998.2,N
1601388575.1,286046997.1,N
1601388576.0,286046997.1,N
1601388595.8,286046993.4,N
1601388615.7,286046996.4,N
1601388635.5,286046994.2,N
1601388655.3,286046996.1,N
1601388675.2,286046997.5,N
1601388695.0,286046998.8,N
1601388695.9,286046998.8,N
1601388715.8,286046998.4,N
1601388735.6,286046996.8,N
1601388755.4,286046995.0,N
1601388775.3,286046995.7,N
1601388795.1,286046994.5,N
1601388815.8,286046991.7,N
1601388835.7,286046990.2,Y
1601388855.5,286046994.8,P
1601388875.4,286046992.1,P
1601388895.2,286046992.3,P
1601388915.0,286046992.8,N
1601388915.9,286046992.8,Y
1601388935.8,286046997.8,P
1601388955.6,286046999.5,N
1601388975.4,286046999.4,N
1601388995.3,286046999.0,N
1601389015.1,286046998.8,N
1601389035.9,286046998.7,N
1601389055.7,286047002.3,N
1601389075.5,286047004.3,N
1601389095.4,286047002.4,N
1601389115.2,286047000.4,N
1601389135.0,286047002.5,N
1601389136.0,286047002.5,N
1601389155.8,286047002.8,N
1601389175.6,286047000.3,N
1601389195.5,286047000.3,N
1601389215.3,286046998.3,N
1601389235.1,286047001.9,N
1601389255.9,286047004.4,N
1601389275.7,286047005.9,N
1601389295.5,286047004.3,N
1601389315.4,286047004.0,N
1601389335.2,286047004.4,N
1601389355.1,286047002.2,N
1601389356.0,286047002.2,N
1601389375.8,286047004.4,N
1601389395.6,286047005.6,N
1601389415.5,286047003.0,N
1601389435.3,286047004.2,N
1601389455.1,286047001.3,N
1601389475.9,286047001.6,N
1601389495.7,286047002.3,N
1601389515.6,286047001.3,N
1601389535.4,286047001.5,N
1601389555.2,286047001.8,N
1601389575.1,286047004.2,N
1601389576.0,286047004.2,N
1601389595.8,286047004.0,N
1601389615.6,286047002.1,N
1601389635.5,286047002.0,N
1601389655.3,286046999.8,N
1601389675.2,286046998.6,N
1601389695.9,286046994.9,N
1601389715.7,286046995.1,N
1601389735.6,286046995.3,N
1601389755.4,286046995.1,N
1601389775.2,286046995.4,N
1601389795.1,286046995.2,N
1601389796.0,286046995.2,N
1601389815.8,286046997.7,N
1601389835.7,286046997.3,N
1601389855.5,286046997.5,N
1601389875.3,286046995.6,N
1601389895.2,286046995.5,N
1601389915.0,286046996.4,N
1601389915.9,286046996.4,N
1601389935.8,286046992.1,N
1601389955.6,286046991.7,N
1601389975.4,286046994.3,N
1601389995.3,286046994.8,N
1601390015.1,286046993.3,N
1601390035.8,286046994.3,N
1601390055.7,286046994.2,N
1601390075.5,286046992.3,N
1601390095.4,286046993.9,N
1601390115.2,286046993.5,N
1601390135.0,286046993.7,N
1601390135.9,286046993.7,N
1601390155.8,286046997.4,N
1601390175.6,286046996.8,N
1601390195.4,286046997.5,N
1601390215.3,286046996.2,N
1601390235.1,286046997.3,N
1601390255.9,286046996.6,N
1601390275.7,286046995.0,N
1601390295.5,286046997.5,N
1601390315.4,286046995.8,N
1601390335.2,286046994.9,N
1601390355.1,286046995.7,N
1601390356.0,286046995.7,N
1601390375.8,286046994.0,Y
1601390395.6,286046999.6,P
1601390415.5,286046996.5,N
1601390435.3,286046997.2,N
1601390455.1,286046996.5,N
1601390475.9,286046999.6,N
1601390495.7,286046999.0,N
1601390515.6,286046998.9,N
1601390535.4,286046998.4,N
1601390555.2,286047000.5,N
1601390575.1,286047001.7,N
1601390576.0,286047001.7,N
1601390595.8,286047002.2,N
1601390615.6,286047000.9,N
1601390635.5,286047000.7,N
1601390655.3,286047001.1,N
1601390675.2,286047002.0,N
1601390695.9,286047001.9,N
1601390715.7,286047000.5,N
1601390735.6,286047000.2,N
16013907551601391295.5,286047000.5,P
1601391315.4,286047002.7,P
1601391335.2,286046999.9,N
1601391355.1,286047000.2,N
1601391356.0,286047000.2,N
1601391375.8,286047000.1,N
1601391395.6,286047001.2,N
1601391415.5,286047000.9,N
1601391435.3,286046998.5,N
1601391455.2,286047000.9,N
1601391475.9,286047002.5,N
1601391495.7,286047000.1,N
1601391515.6,286047002.5,N
1601391535.4,286047000.8,N
1601391555.2,286046996.6,Y
1601391575.1,286046995.2,P
1601391576.0,286046995.2,N
1601391595.8,286046995.8,N
